Weather History for Baton Rouge, LA

Change the Weather History Date:

Sunday, July 8, 2012

  Actual Average Record
Temperature  
Mean Temperature 80 °F 83 °F  
Max Temperature 87 °F 92 °F 99 °F (1960)
Min Temperature 73 °F 74 °F 61 °F (1905)
Degree Days  
Heating Degree Days 0 0  
Month to date heating degree days 0 0  
Since 1 June heating degree days 0 0  
Since 1 July heating degree days 0 0  
Cooling Degree Days 15 18  
Month to date cooling degree days 155 144  
Year to date cooling degree days 1428 1193  
Since 1 June cooling degree days 615 628  
Growing Degree Days 30 (Base 50)    
Moisture  
Dew Point 73 °F    
Average Humidity 85    
Maximum Humidity 100    
Minimum Humidity 70    
Precipitation  
Precipitation 1.08 in 0.18 in 2.21 in (1977)
Month to date precipitation 2.50 1.45  
Year to date precipitation 33.77 32.38  
Snow  
Snow 0.00 in - - ()
Month to date snowfall 0.0  
Since 1 June snowfall 0.0  
Since 1 July snowfall 0.0  
Snow Depth 0.00 in    
Sea Level Pressure  
Sea Level Pressure 30.05 in    
Wind  
Wind Speed 2 mph (South)    
Max Wind Speed 15 mph    
Max Gust Speed 23 mph    
Visibility 7 miles    
Events Fog , Rain    
T = Trace of Precipitation, MM = Missing Value Source: NWS Daily Summary

Daily Weather History Graph

Daily Weather History Graph

Search for Another Location

Airport:

Trip Planner

Search our weather history database for the weather conditions in past years. The results will help you decide how hot, cold, wet, or windy it might be!

Date:

Astronomy

Jul. 08, 2012 Rise Set
Actual Time 6:09 AM CDT 8:10 PM CDT
Civil Twilight 5:41 AM CDT 8:37 PM CDT
Nautical Twilight 5:08 AM CDT 9:10 PM CDT
Astronomical Twilight 4:33 AM CDT 9:46 PM CDT
Moon 11:26 PM CDT (7/8) 11:10 AM CDT (7/8)
Length of Visible Light 14h 55m
Length of Day
14h 01m
Waning Gibbous, 73% of the Moon is Illuminated
Jul 8
Waning Gibbous
Jul 10
Last Quarter
Jul 18
New
Jul 26
First Quarter
Aug 1
Full

Hourly Weather History & Observations

Time (CDT) Temp. Heat Index Dew Point Humidity Pressure Visibility Wind Dir Wind Speed Gust Speed Precip Events Conditions
12:53 AM 77.0 °F - 73.9 °F 90% 30.03 in 10.0 mi Calm Calm - N/A   Clear
1:53 AM 77.0 °F - 73.0 °F 88% 30.02 in 10.0 mi Calm Calm - N/A   Clear
2:53 AM 75.9 °F - 73.9 °F 94% 30.02 in 10.0 mi Calm Calm - N/A   Clear
3:53 AM 75.9 °F - 73.9 °F 94% 30.02 in 9.0 mi Calm Calm - N/A   Partly Cloudy
4:53 AM 75.9 °F - 73.9 °F 94% 30.03 in 9.0 mi Calm Calm - N/A   Clear
5:53 AM 75.9 °F - 73.9 °F 94% 30.03 in 8.0 mi Calm Calm - N/A   Clear
6:53 AM 75.9 °F - 73.9 °F 94% 30.05 in 7.0 mi Calm Calm - N/A   Clear
7:53 AM 79.0 °F - 75.0 °F 88% 30.07 in 9.0 mi Calm Calm - N/A   Clear
8:53 AM 81.0 °F 86.7 °F 75.0 °F 82% 30.07 in 10.0 mi SSW 3.5 mph - N/A   Scattered Clouds
9:31 AM 82.4 °F 89.5 °F 75.2 °F 79% 30.07 in 10.0 mi Calm Calm - N/A   Scattered Clouds
9:53 AM 84.0 °F 91.9 °F 75.0 °F 74% 30.06 in 10.0 mi Calm Calm - N/A   Scattered Clouds
10:53 AM 84.9 °F 92.1 °F 73.9 °F 69% 30.06 in 10.0 mi Calm Calm - 0.00 in Rain Light Rain
11:00 AM 84.2 °F 92.3 °F 75.2 °F 74% 30.06 in 10.0 mi SW 3.5 mph - 0.00 in   Overcast
11:53 AM 86.0 °F 93.0 °F 73.0 °F 65% 30.05 in 10.0 mi Calm Calm - 0.00 in   Mostly Cloudy
12:53 PM 84.9 °F 92.1 °F 73.9 °F 69% 30.03 in 10.0 mi ENE 4.6 mph - N/A   Overcast
1:53 PM 77.0 °F - 72.0 °F 84% 30.05 in 1.5 mi NNW 15.0 mph 20.7 mph N/A   Haze
2:08 PM 75.2 °F - 71.6 °F 89% 30.05 in 5.0 mi NNE 6.9 mph - 0.00 in Rain Light Rain
2:17 PM 73.4 °F - 71.6 °F 94% 30.05 in 2.5 mi NW 13.8 mph 18.4 mph 0.10 in Rain Light Rain
2:24 PM 73.4 °F - 71.6 °F 94% 30.05 in 10.0 mi NNW 9.2 mph 18.4 mph 0.10 in Rain Light Rain
2:42 PM 73.4 °F - 71.6 °F 94% 30.07 in 1.5 mi NW 4.6 mph - 0.11 in Rain Rain
2:50 PM 73.4 °F - 71.6 °F 94% 30.08 in 0.5 mi Calm Calm - 0.41 in Fog , Rain Heavy Rain
2:53 PM 73.0 °F - 72.0 °F 96% 30.09 in 0.2 mi SE 3.5 mph - 0.46 in Fog , Rain Heavy Rain
3:09 PM 73.4 °F - 73.4 °F 100% 30.09 in 0.2 mi SSE 10.4 mph - 0.28 in Fog , Rain Heavy Rain
3:16 PM 73.4 °F - 73.4 °F 100% 30.09 in 1.5 mi SSE 5.8 mph - 0.38 in Rain Heavy Rain
3:37 PM 75.2 °F - 73.4 °F 94% 30.07 in 2.5 mi West 4.6 mph - 0.50 in Rain Heavy Rain
3:48 PM 73.4 °F - 71.6 °F 94% 30.07 in 3.0 mi Calm Calm - 0.54 in Rain Rain
3:53 PM 73.9 °F - 71.1 °F 91% 30.07 in 3.0 mi SSW 3.5 mph - 0.55 in Rain Rain
4:53 PM 73.9 °F - 73.0 °F 97% 30.04 in 9.0 mi East 4.6 mph - 0.07 in Rain Light Rain
5:53 PM 73.9 °F - 72.0 °F 93% 29.99 in 10.0 mi SE 3.5 mph - 0.00 in   Clear
6:53 PM 75.0 °F - 72.0 °F 90% 30.00 in 10.0 mi Calm Calm - N/A   Clear
7:53 PM 75.0 °F - 73.0 °F 94% 29.99 in 10.0 mi Calm Calm - N/A   Clear
8:53 PM 75.0 °F - 73.0 °F 94% 30.00 in 10.0 mi Calm Calm - N/A   Clear
9:53 PM 73.0 °F - 72.0 °F 96% 30.01 in 9.0 mi Calm Calm - N/A   Clear
10:53 PM 73.9 °F - 72.0 °F 93% 30.04 in 10.0 mi North - - N/A   Clear
11:53 PM 73.9 °F - 72.0 °F 93% 30.04 in 9.0 mi East 3.5 mph - N/A   Clear